When you browse on this site, cookies collect data to enhance your experience and personalize the content and advertising you see.
Visit our Privacy Policy to learn more. By continuing to use the site, you agree to this use of cookies and data.
  • In Latvia
  • List of Countries
  • For 7 days
  • Water Temperature
  • Weather Map
  • Weather Widgets
  • user-avatar
    Login

    Hourly Weather Zalaegerszeg

    Today, 17 September, Tuesday

    Time Temperature Precipitation Wind Pressure Humidity
    00:00 +21°C° 0.1 mm 1 mps 748 mmHg 72%
    01:00 +21°C° 0.1 mm 1 mps 748 mmHg 73%
    02:00 +21°C° 0 mm 1 mps 748 mmHg 73%
    03:00 +20°C° 0 mm 1 mps 747 mmHg 73%
    04:00 +20°C° 0 mm 1 mps 747 mmHg 73%
    05:00 +20°C° 0 mm 1 mps 747 mmHg 71%
    06:00 +20°C° 0 mm 2 mps 747 mmHg 69%
    07:00 +20°C° 0 mm 2 mps 747 mmHg 67%
    08:00 +21°C° 0 mm 2 mps 748 mmHg 61%
    09:00 +23°C° 0 mm 2 mps 748 mmHg 56%
    10:00 +25°C° 0 mm 2 mps 748 mmHg 50%
    11:00 +26°C° 0 mm 2 mps 748 mmHg 48%
    12:00 +27°C° 0 mm 2 mps 747 mmHg 45%
    13:00 +28°C° 0 mm 2 mps 747 mmHg 43%
    14:00 +28°C° 0 mm 2 mps 746 mmHg 43%
    15:00 +28°C° 0 mm 2 mps 746 mmHg 44%
    16:00 +28°C° 0 mm 1 mps 746 mmHg 44%
    17:00 +26°C° 0.1 mm 2 mps 746 mmHg 51%
    18:00 +24°C° 0.1 mm 2 mps 746 mmHg 58%
    19:00 +21°C° 0.1 mm 2 mps 746 mmHg 65%
    20:00 +20°C° 0.1 mm 2 mps 746 mmHg 69%
    21:00 +19°C° 0.1 mm 3 mps 746 mmHg 72%
    22:00 +18°C° 0.1 mm 3 mps 746 mmHg 76%
    23:00 +17°C° 0.1 mm 4 mps 747 mmHg 72%

    Tomorrow, 18 September, Wednesday

    Time Temperature Precipitation Wind Pressure Humidity
    00:00 +16°C° 0.1 mm 6 mps 747 mmHg 68%
    01:00 +15°C° 0.1 mm 7 mps 748 mmHg 64%
    02:00 +15°C° 0 mm 7 mps 748 mmHg 62%
    03:00 +14°C° 0 mm 7 mps 749 mmHg 60%
    04:00 +12°C° 0 mm 8 mps 749 mmHg 58%
    05:00 +12°C° 0 mm 8 mps 750 mmHg 55%
    06:00 +11°C° 0 mm 8 mps 751 mmHg 51%
    07:00 +11°C° 0 mm 8 mps 752 mmHg 48%
    08:00 +12°C° 0 mm 7 mps 752 mmHg 44%
    09:00 +14°C° 0 mm 6 mps 753 mmHg 40%
    10:00 +15°C° 0 mm 6 mps 754 mmHg 35%
    11:00 +16°C° 0 mm 5 mps 754 mmHg 34%
    12:00 +18°C° 0 mm 4 mps 754 mmHg 34%
    13:00 +18°C° 0 mm 3 mps 753 mmHg 33%
    14:00 +18°C° 0 mm 3 mps 753 mmHg 37%
    15:00 +17°C° 0 mm 3 mps 753 mmHg 40%
    16:00 +17°C° 0 mm 2 mps 753 mmHg 44%
    17:00 +15°C° 0 mm 2 mps 753 mmHg 54%
    18:00 +13°C° 0 mm 2 mps 753 mmHg 63%
    19:00 +10°C° 0 mm 2 mps 753 mmHg 73%
    20:00 +9°C° 0 mm 2 mps 753 mmHg 73%
    21:00 +9°C° 0 mm 2 mps 753 mmHg 74%
    22:00 +8°C° 0 mm 2 mps 754 mmHg 75%
    23:00 +9°C° 0 mm 1 mps 754 mmHg 73%

    Day after tomorrow, 19 September, Thursday

    Time Temperature Precipitation Wind Pressure Humidity
    00:00 +9°C° 0 mm 1 mps 754 mmHg 71%
    01:00 +9°C° 0 mm 1 mps 754 mmHg 69%
    02:00 +8°C° 0 mm 2 mps 754 mmHg 70%
    03:00 +8°C° 0 mm 2 mps 754 mmHg 71%
    04:00 +8°C° 0 mm 2 mps 754 mmHg 71%
    05:00 +8°C° 0 mm 2 mps 754 mmHg 69%
    06:00 +9°C° 0 mm 3 mps 754 mmHg 66%
    07:00 +10°C° 0 mm 3 mps 754 mmHg 64%
    08:00 +11°C° 0 mm 3 mps 754 mmHg 58%
    09:00 +13°C° 0 mm 4 mps 755 mmHg 51%
    10:00 +14°C° 0 mm 4 mps 755 mmHg 45%
    11:00 +15°C° 0 mm 4 mps 755 mmHg 43%
    12:00 +17°C° 0 mm 4 mps 754 mmHg 42%
    13:00 +18°C° 0 mm 4 mps 754 mmHg 40%
    14:00 +18°C° 0 mm 4 mps 754 mmHg 39%
    15:00 +17°C° 0 mm 4 mps 754 mmHg 38%
    16:00 +17°C° 0 mm 4 mps 754 mmHg 37%
    17:00 +14°C° 0 mm 4 mps 754 mmHg 41%
    18:00 +12°C° 0 mm 3 mps 755 mmHg 46%
    19:00 +10°C° 0 mm 2 mps 755 mmHg 51%
    20:00 +9°C° 0 mm 2 mps 756 mmHg 54%
    21:00 +9°C° 0 mm 2 mps 756 mmHg 57%
    22:00 +8°C° 0 mm 2 mps 756 mmHg 61%
    23:00 +8°C° 0 mm 2 mps 756 mmHg 63%

    20 September, Friday

    Time Temperature Precipitation Wind Pressure Humidity
    00:00 +7°C° 0 mm 2 mps 756 mmHg 66%
    01:00 +7°C° 0 mm 2 mps 756 mmHg 69%
    02:00 +7°C° 0 mm 2 mps 756 mmHg 71%
    03:00 +7°C° 0 mm 2 mps 756 mmHg 72%
    04:00 +6°C° 0 mm 2 mps 756 mmHg 74%
    05:00 +7°C° 0 mm 2 mps 756 mmHg 72%
    06:00 +8°C° 0 mm 2 mps 756 mmHg 70%
    07:00 +8°C° 0 mm 3 mps 756 mmHg 67%
    08:00 +11°C° 0 mm 3 mps 757 mmHg 59%
    09:00 +13°C° 0 mm 3 mps 757 mmHg 51%
    10:00 +16°C° 0 mm 3 mps 757 mmHg 43%
    11:00 +17°C° 0 mm 3 mps 757 mmHg 40%
    12:00 +18°C° 0 mm 3 mps 756 mmHg 36%
    13:00 +19°C° 0 mm 3 mps 756 mmHg 32%
    14:00 +19°C° 0 mm 3 mps 756 mmHg 33%
    15:00 +19°C° 0 mm 2 mps 755 mmHg 33%
    16:00 +19°C° 0 mm 2 mps 755 mmHg 33%
    17:00 +17°C° 0 mm 2 mps 755 mmHg 38%
    18:00 +15°C° 0 mm 2 mps 756 mmHg 44%
    19:00 +12°C° 0 mm 2 mps 756 mmHg 49%
    20:00 +12°C° 0 mm 1 mps 756 mmHg 52%
    21:00 +11°C° 0 mm 1 mps 756 mmHg 54%
    22:00 +10°C° 0 mm 1 mps 757 mmHg 57%
    23:00 +10°C° 0 mm 1 mps 757 mmHg 59%

    21 September, Saturday

    Time Temperature Precipitation Wind Pressure Humidity
    00:00 +9°C° 0 mm 1 mps 757 mmHg 61%
    01:00 +8°C° 0 mm 0 mps 757 mmHg 63%
    02:00 +8°C° 0 mm 0 mps 757 mmHg 65%
    03:00 +7°C° 0 mm 0 mps 757 mmHg 66%
    04:00 +7°C° 0 mm 0 mps 757 mmHg 68%
    05:00 +8°C° 0 mm 0 mps 757 mmHg 65%
    06:00 +9°C° 0 mm 0 mps 757 mmHg 62%
    07:00 +10°C° 0 mm 0 mps 757 mmHg 60%
    08:00 +13°C° 0 mm 1 mps 757 mmHg 53%
    09:00 +15°C° 0 mm 1 mps 757 mmHg 46%
    10:00 +18°C° 0 mm 2 mps 757 mmHg 39%
    11:00 +19°C° 0 mm 2 mps 757 mmHg 36%
    12:00 +20°C° 0 mm 2 mps 757 mmHg 33%
    13:00 +21°C° 0 mm 2 mps 756 mmHg 31%
    14:00 +21°C° 0 mm 2 mps 756 mmHg 30%
    15:00 +21°C° 0 mm 2 mps 756 mmHg 30%
    16:00 +21°C° 0 mm 2 mps 755 mmHg 30%
    17:00 +18°C° 0 mm 2 mps 755 mmHg 36%
    18:00 +16°C° 0 mm 2 mps 755 mmHg 42%
    19:00 +14°C° 0 mm 2 mps 755 mmHg 48%
    20:00 +13°C° 0 mm 2 mps 756 mmHg 49%
    21:00 +12°C° 0 mm 2 mps 756 mmHg 51%
    22:00 +10°C° 0 mm 2 mps 756 mmHg 52%
    23:00 +10°C° 0 mm 2 mps 756 mmHg 54%

    22 September, Sunday

    Time Temperature Precipitation Wind Pressure Humidity
    00:00 +9°C° 0 mm 2 mps 756 mmHg 55%
    01:00 +9°C° 0 mm 2 mps 756 mmHg 56%
    02:00 +8°C° 0 mm 2 mps 756 mmHg 57%
    03:00 +8°C° 0 mm 2 mps 756 mmHg 59%
    04:00 +8°C° 0 mm 2 mps 756 mmHg 60%
    05:00 +8°C° 0 mm 2 mps 756 mmHg 58%
    06:00 +9°C° 0 mm 2 mps 756 mmHg 56%
    07:00 +10°C° 0 mm 2 mps 756 mmHg 54%
    08:00 +13°C° 0 mm 2 mps 756 mmHg 47%
    09:00 +16°C° 0 mm 3 mps 756 mmHg 40%
    10:00 +19°C° 0 mm 3 mps 756 mmHg 33%
    11:00 +20°C° 0 mm 3 mps 756 mmHg 30%
    12:00 +22°C° 0 mm 4 mps 755 mmHg 28%
    13:00 +23°C° 0 mm 4 mps 755 mmHg 25%
    14:00 +23°C° 0 mm 4 mps 754 mmHg 26%
    15:00 +23°C° 0 mm 4 mps 754 mmHg 27%
    16:00 +23°C° 0 mm 4 mps 754 mmHg 28%
    17:00 +20°C° 0 mm 3 mps 754 mmHg 34%
    18:00 +18°C° 0 mm 2 mps 754 mmHg 41%
    19:00 +15°C° 0 mm 2 mps 754 mmHg 47%
    20:00 +14°C° 0 mm 2 mps 754 mmHg 48%
    21:00 +14°C° 0 mm 2 mps 754 mmHg 49%
    22:00 +13°C° 0 mm 2 mps 754 mmHg 51%
    23:00 +13°C° 0 mm 2 mps 754 mmHg 50%
    Show more